CZ-6A DEB

Satellite information

Favourite Embed

Satellite Type and Status

DEBRISIN ORBIT

Key statistics

Satellite CZ-6A DEB at a glance.

Uptime

329

Days in orbit

Revolutions

≈ 14.0

Per day

Orbit

LEO

Low Earth Orbit

Inclination

89.0

Latest

Satellite identification and parameters

Extended collection of information and parameters for CZ-6A DEB.

Object identification

Identified? True

Debris? True

Object name: CZ-6A DEB

International designator: 2024-140XX

Object number (NORAD): 61406

Object ID (CCSDS): 61406

Country: PEOPLES REPUBLIC OF CHINA (PRC)

Current information (Y/N): Y

RCS size: SMALL

Orbital parameters

Period: 102.696 minutes

Inclination: 89.0086 deg

SMA: 7264.341 km

Apoapsis: 979.092 km

Periapsis: 793.321 km

RAAN: 315.5377 deg

Eccentricy: 0.0127865

Argument of periapsis: 291.0431 deg

Mean anomaly: 67.7113 deg

Mean motion: 14.02194978 rev/day

Mean motion (dot): 0.00000338 rev/day2

B* drag term: 0.00019815 1/REarth

Two-line elements (TLE)

Creation date: July 1, 2025, 2:15 a.m.

Reference frame: TEME

Reference center: EARTH

Epoch: June 30, 2025, 9:18 p.m. UTC

TLE line 0: 0 CZ-6A DEB

TLE line 1: 1 61406U 24140XX 25181.88796785 .00000338 00000-0 19815-3 0 9994

TLE line 2: 2 61406 89.0086 315.5377 0127865 291.0431 67.7113 14.02194978 41151

Live tracking on map

Real-time ground track for satellite CZ-6A DEB.

In-orbit conjunctions

A list of the most updated potential collisions computed for object CZ-6A DEB.

Target Orbit TCA Probability of collision Miss distance Type
COSMOS 1844 LEO 2025-05-04 02:48:06 0.00163379 501.0 (m) PAYLOAD
COSMOS 1275 DEB LEO 2024-12-23 12:43:05 0.002294489 65.0 (m) DEBRIS
FENGYUN 1C DEB * SSO 2024-12-13 23:45:01 0.0004766801 184.0 (m) DEBRIS
FENGYUN 1C SSO 2024-11-12 06:11:23 0.0001012794 660.0 (m) PAYLOAD
DMSP 5D-2 F13 DEB SSO 2024-11-11 06:34:26 0.0003530656 347.0 (m) DEBRIS

Associated space launch

18 Low Earth Orbit communication satellites with Ku, Q and V band payloads for the G60 constellation operated by Shanghai Spacecom Satellite Technology (SSST) with funding backed by the Shanghai local government. Initial constellation will consist of 1296 satellites by 2027 with long term plans to expand it to 12000 satellites.

CZ-6A DEB was lifted into orbit during the mission ‘Long March 6A | G60 Polar Group 01’, on board a Long March 6A space rocket.

The launch took place on Aug. 6, 2024, 6:42 a.m. from Launch Complex 9A.

For more information about the launch, click the button.

Launch to space Long March 6A | G60 Polar Group 01
Long March 6A | G60 Polar Group 01

Agency: N/A

Status: Launch Successful

Launch date: Aug. 6, 2024, 6:42 a.m. UTC

Rocket: Long March 6A

Launch pad: Launch Complex 9A

Location: Taiyuan Satellite Launch Center, People's Republic of China

...

Latest news about this satellite

News about space launch
Brightness of first Chinese broadband constellation satellites alarms astronomers

The first satellites of a Chinese broadband constellation are significantly brighter than those of Western systems, posing a new challenge for astronomers.

News about space launch
Chinese rocket stage breaks up into cloud of more than 700 pieces of space debris

HELSINKI — A Chinese Long March 6A rocket’s upper stage has fragmented into a cloud of over 700 pieces of space debris, adding to concerns about long-term orbital safety. China […]

News about space launch
China's Thousand Sails Megaconstellation Kicks Off with Dangerous Debris Field

China's Thousand Sails Megaconstellation Kicks Off with Dangerous Debris Field


Newsletter sign-up

Weekly statistics, charts and insights to help you stay on top of the space industry.